SL-8 DEB, 12404

Orbit data source: Space-Track

SL-8 DEB, 12404 is space debris in LEO originally from a launch on Mon, 17 Mar 1980 UTC launched from the Plesetsk Missile And Space Complex (PKMTR). Debris objects in space refer to the collection of defunct objects orbiting the Earth. Examples of debris include non-operational satellites, rocket bodies, and fragments generated from explosions, collisions, or faulty payload assembly.

Loading next visibility...
Identifier
12404, 1980-022C
Orbit
LEO
Country
Flag of CISCIS
Related business
Manufacturer
Unknown
Mission
Spacecraft
Bus & Motor
Unknown
Mass
Unknown
Launch date (UTC)
1980-03-17 (46 years ago)
Launch vehicle
Unknown
Launch site
Plesetsk Missile And Space Complex (PKMTR)
Object type
Payload
Rocket body
Debris
Shape & HBR
Unknown shape, 0.1 m
Radar Cross Section
Small (<0.1 m²)

Expand to show TLE details & history
Last TLE update: 7 hours ago

TLE from 7 hours ago
0 SL-8 DEB
1 12404U 80022C   26127.11240447  .00007731  00000-0  15512-2 0  9998
2 12404  82.9064 239.8934 0011842 170.1800 189.9637 14.61565733361164
Epoch: 2026-05-07T02:41Z
TLE epoch observation values (Epoch: 2026-05-07T02:41:51.746Z)
Latitude
-0.0001°
Longitude
-25.53544°
Altitude
699.386 km
Speed
7.502 km/s
True Right ascension
15h 59m 34s
True Declination
0° 00' 00"
Sunlit
Object was in full shadow at epoch
Visualization orbit readout
Latitude
Unknown
Longitude
Unknown
Altitude
Unknown
Speed
Unknown
Apparent Right ascension
Unknown
Apparent Declination
Unknown
Sunlit
N/A
Visualization observer readout
Local Sidereal Time
17:25:00
Azimuth
Unknown
Elevation
Unknown
Doppler factor
Unknown
Orbital elements
Apogee altitude
693.519 km
Perigee altitude
676.79 km
Semi-major axis
7,063.291 km
Eccentricity
0.00118
Inclination
82.9064°
RAAN
239.8934°
Arg. of periapsis
170.18°
True anomaly
189.94025°
Mean anomaly
189.9637°
Eccentric anomaly
189.95197°
Mean motion
3.65622 °/min
Orbital period
98.46 mins
BSTAR
0.0015512
Loading maneuver chart data...
Computing Atmospheric mass density...
Loading historical data...
Loading historical data...
Loading historical data...
Loading historical data...
Loading historical data...
Loading historical data...
Loading historical data...
Other satellites on launch #22 in the year 1980 (1980-03-17 UTC)

Documentation

Showing up to 5 results
|